RH
85 85 83 79 76 73 72 69 67 64 60 57 55 54 52 49 46 45 42 41 40 39 38 39 40 42 42 43 45 49 52 55 64 77 87 94 99 99 95 89 85 81 78 78 80 79 74 66 63 66 68 66 63 59 57 59 63 65 65 66 70 73 69 64 65 66 70 76 77 77 76 73 70 68 68 68 67 67 64 61 58 57 56 56 55
83 83 82 80 77 74 72 71 70 69 66 63 61 59 58 55 52 48 45 45 44 42 40 37 35 36 36 36 37 40 45 50 55 64 74 83 91 97 99 94 88 85 80 76 77 79 76 69 65 68 72 71 66 63 62 62 65 66 66 70 75 76 71 68 70 71 73 78 77 76 76 72 68 67 68 70 69 68 66 63 61 59 58 57 56
85 83 82 82 81 78 76 74 73 72 70 67 66 65 64 62 60 56 52 48 47 45 44 39 35 34 32 31 31 32 36 41 47 54 63 72 81 89 96 98 94 89 83 78 77 79 79 72 65 69 77 77 71 70 70 67 67 71 72 74 79 78 72 74 79 78 77 80 78 77 77 73 68 66 68 70 70 69 67 64 63 62 61 60 58
86 85 84 84 84 82 81 80 78 76 75 72 71 71 71 69 68 66 62 56 52 50 49 45 41 37 36 34 34 34 35 36 41 48 54 61 70 79 88 97 99 93 86 81 79 80 80 72 65 70 80 81 77 79 79 73 70 75 77 80 84 80 74 77 83 80 77 78 79 79 77 75 73 71 71 72 73 73 71 69 69 68 66 65 63
86 86 86 85 84 83 83 83 83 82 81 79 77 76 76 76 75 71 66 61 57 54 52 50 47 43 40 39 39 40 40 40 42 46 52 56 61 69 79 91 100 99 93 86 82 81 79 71 64 70 80 82 78 80 83 79 78 80 83 87 89 83 79 82 83 80 77 76 77 78 77 78 78 77 76 77 77 77 76 74 73 71 69 68 67
85 86 86 86 85 84 84 84 84 84 84 83 80 77 76 78 78 75 71 67 63 60 56 52 49 47 45 43 42 43 44 44 43 46 51 54 57 63 71 82 94 101 98 93 88 85 81 74 67 69 78 81 78 79 82 82 85 85 87 92 92 87 85 86 81 78 76 75 75 76 78 80 81 81 80 80 79 78 77 77 76 75 73 72 71
88 88 87 85 83 82 82 82 82 83 83 84 81 77 74 75 78 77 75 72 68 64 59 53 49 47 46 46 44 43 45 47 48 49 52 54 56 60 66 74 87 98 100 96 95 90 83 78 72 71 77 80 79 81 84 87 88 88 91 95 94 91 87 83 78 76 75 73 71 72 75 76 76 76 75 74 74 73 74 76 79 80 79 78 76
89 89 88 85 81 80 79 79 79 79 79 80 80 79 76 76 78 77 74 72 69 65 60 54 50 47 48 49 48 46 48 51 51 52 54 54 56 58 63 69 78 91 99 99 97 92 85 81 77 75 77 80 82 84 87 89 90 90 94 98 95 92 86 77 75 75 71 68 66 68 71 72 73 73 71 70 71 71 72 75 79 80 80 78 76
86 87 86 83 81 80 79 78 77 76 74 75 77 79 77 76 78 78 75 73 71 67 60 56 53 50 52 55 54 53 56 56 54 55 56 57 56 57 62 69 74 83 94 99 98 95 91 87 80 75 77 82 86 89 88 89 91 90 92 96 95 92 83 74 72 71 65 61 62 65 68 70 72 73 73 72 71 72 76 79 79 79 79 77 73
88 86 83 81 79 78 76 75 76 76 75 75 76 79 80 78 78 78 77 74 72 68 63 58 54 53 57 60 61 63 67 67 64 65 67 67 65 61 63 71 77 80 89 97 99 96 95 93 85 76 77 83 90 93 89 88 93 93 91 94 94 87 77 70 67 64 58 56 58 62 65 67 68 69 71 71 69 71 78 82 81 79 78 75 70
90 87 84 81 78 76 74 74 75 76 78 80 80 81 83 83 82 81 81 78 75 71 67 61 54 54 60 65 67 72 77 80 79 79 78 77 76 71 66 70 78 82 88 96 100 98 96 96 90 80 76 83 92 97 92 89 94 96 95 94 90 82 76 69 64 59 55 54 56 60 61 60 62 64 65 64 65 72 81 84 82 79 77 73 69
89 88 85 83 82 81 81 81 80 81 83 84 85 87 90 90 88 86 86 85 82 75 69 63 56 57 65 72 78 81 84 88 91 91 89 84 80 76 69 70 74 78 88 98 100 98 97 97 95 86 78 83 93 96 91 89 95 98 95 91 84 79 76 70 62 58 56 55 57 59 58 57 59 61 60 60 66 76 83 84 81 77 73 70 69
89 88 88 89 90 88 87 85 85 87 88 88 90 94 97 95 92 92 93 91 85 74 66 61 59 64 74 80 84 87 89 93 97 99 98 93 88 80 73 72 71 73 86 99 100 99 98 98 98 92 83 85 92 92 88 86 91 96 93 87 81 78 76 71 64 59 58 58 58 58 57 58 60 60 61 65 71 78 83 82 78 74 72 70 67
92 91 91 91 90 87 86 85 86 88 89 90 94 98 99 97 96 98 97 91 81 69 61 61 63 72 80 81 82 84 88 94 99 101 102 99 96 89 80 76 76 77 86 98 101 100 99 98 99 96 91 89 88 88 87 85 89 94 89 82 79 79 78 73 64 60 60 62 60 60 60 61 61 62 66 71 74 78 80 76 71 69 68 66 61
96 94 91 90 90 90 90 89 90 91 91 93 97 99 99 99 99 100 95 85 74 63 60 63 68 75 79 78 78 78 80 87 94 99 102 99 97 94 86 82 83 84 88 96 100 101 99 99 100 99 97 93 88 86 87 87 90 92 86 79 79 81 79 74 68 66 66 64 62 62 63 63 65 69 74 76 75 73 71 66 62 61 59 57 55
97 95 94 93 92 93 92 91 93 94 95 98 99 99 99 99 98 94 85 75 68 63 63 66 70 75 77 74 74 74 76 80 86 93 99 100 97 94 88 86 89 90 92 97 101 100 99 100 100 100 99 95 89 87 88 88 91 91 86 81 81 80 77 74 72 71 67 63 63 66 67 70 73 76 76 74 69 63 60 58 56 56 57 56 51
97 98 98 95 93 93 93 93 95 98 99 99 99 98 99 97 91 83 73 69 67 67 68 68 69 72 74 74 72 72 74 78 81 87 96 101 101 97 92 92 96 98 97 99 101 100 100 100 100 101 100 96 92 91 90 89 90 89 87 86 84 79 76 75 74 71 68 66 69 72 72 72 72 70 68 65 62 58 56 55 54 55 54 50 41
101 101 99 97 96 95 95 97 99 100 99 99 98 99 95 88 80 73 68 67 68 69 70 72 72 72 73 75 74 72 75 79 79 83 93 101 102 100 98 97 100 100 99 100 100 100 100 100 100 101 100 98 95 93 91 88 87 87 89 89 84 78 77 77 75 72 70 70 72 72 70 67 64 62 61 58 55 53 52 52 53 52 48 41 35
102 101 100 98 97 98 99 100 99 98 98 99 97 92 84 77 72 70 71 71 72 74 76 77 78 75 74 77 78 74 74 78 78 82 93 100 101 99 98 98 100 101 100 99 100 100 99 99 100 99 99 99 97 95 92 88 86 89 91 89 84 81 80 78 75 73 73 72 70 67 64 63 63 61 57 53 51 50 50 50 50 46 41 37 34
101 101 100 97 98 100 101 98 96 97 97 92 86 78 73 72 72 72 74 76 77 80 83 85 87 85 81 80 79 74 71 72 76 85 95 100 99 95 96 99 100 100 100 100 101 101 100 99 100 98 98 99 99 97 92 88 89 92 93 92 89 87 84 79 75 74 72 68 64 62 63 67 67 60 53 50 49 50 49 48 46 42 38 35 33
100 101 99 97 99 101 99 97 96 93 85 77 72 71 72 74 74 74 77 81 85 88 91 93 94 91 84 80 80 79 73 70 75 88 98 101 96 93 96 100 100 99 100 100 101 100 97 97 99 98 98 99 99 95 91 91 95 97 95 94 93 89 83 78 75 72 67 62 60 61 64 68 65 55 50 49 50 48 47 45 43 40 37 35 33
101 99 97 97 99 100 100 97 90 80 72 70 71 73 74 74 75 77 81 87 93 94 93 93 92 88 83 82 84 83 79 77 85 95 101 100 96 95 99 101 100 99 100 99 100 99 95 94 97 98 99 99 99 97 96 97 99 99 96 94 90 85 81 77 72 67 62 61 62 64 65 63 58 52 51 51 49 46 45 44 42 40 37 35 35
98 96 96 96 97 100 100 90 77 69 69 72 74 75 76 77 79 82 87 93 96 94 92 94 93 88 85 84 85 85 85 90 97 100 100 100 96 96 101 103 101 101 101 100 100 98 96 95 98 100 100 99 100 99 98 98 98 97 94 89 85 81 77 71 65 61 61 63 64 64 63 58 54 53 53 51 47 45 45 44 42 40 39 38 37
94 95 96 94 96 100 94 77 68 68 71 74 77 79 82 84 85 88 91 93 93 91 93 96 94 89 86 86 87 91 95 99 100 100 100 100 97 96 99 99 98 98 99 98 99 98 98 98 98 98 98 98 99 98 97 96 95 92 88 83 79 75 69 64 61 62 64 65 64 62 59 55 53 52 50 48 47 46 46 44 42 42 41 39 37
94 96 95 94 98 96 81 68 67 71 72 77 83 85 87 90 91 90 89 90 91 93 97 99 97 96 95 94 96 99 100 100 100 100 101 100 98 98 98 96 94 94 93 92 93 95 96 96 95 95 97 98 98 96 93 92 90 86 81 77 73 69 66 65 65 66 66 65 62 59 56 53 51 50 49 48 48 47 46 45 45 44 42 40 39
96 97 96 96 96 86 71 66 71 74 76 81 85 87 91 94 93 90 89 92 96 98 99 100 99 99 99 99 100 101 100 100 100 100 100 100 99 100 100 98 97 97 94 91 89 89 91 93 95 97 97 94 91 88 86 86 86 82 79 77 74 71 69 69 69 67 64 61 58 55 53 52 51 50 50 50 50 49 49 48 47 44 42 41 39
99 98 97 97 89 75 66 68 72 75 79 82 85 90 95 95 92 90 93 97 100 100 100 99 99 99 98 99 100 100 100 100 100 100 100 99 99 99 100 100 100 100 99 97 96 94 94 96 97 95 92 89 87 85 85 86 86 84 82 82 80 75 71 69 68 65 62 58 56 54 54 53 52 51 52 52 52 51 51 49 46 44 43 41 36
100 99 99 94 80 68 67 71 74 77 80 83 88 94 95 92 91 94 98 100 100 100 100 100 100 100 98 98 99 100 100 100 100 99 99 98 98 99 100 100 99 100 100 100 100 98 97 96 95 92 91 90 90 90 89 88 87 85 86 86 81 75 71 70 67 65 61 58 57 56 55 54 53 53 54 54 54 53 51 48 46 45 43 38 32
100 101 101 91 73 65 69 73 76 78 81 85 92 96 94 92 92 95 99 99 99 99 100 100 100 100 99 99 99 99 100 100 99 99 99 98 98 99 100 100 99 100 100 99 98 97 97 97 95 94 94 94 94 94 93 90 88 89 90 87 80 74 72 70 66 63 60 58 57 55 54 54 55 56 56 55 55 53 50 48 47 44 40 35 30
100 101 99 85 68 65 71 74 77 80 82 88 93 93 92 93 93 95 99 99 98 99 99 99 101 101 99 100 100 99 99 99 97 97 98 99 99 99 100 100 98 99 99 98 96 94 95 97 97 97 98 97 95 93 90 87 88 90 88 82 76 73 71 67 63 60 58 56 55 55 55 57 57 58 58 57 55 52 50 48 46 42 37 33 30
99 101 97 79 64 66 72 75 79 83 83 87 92 90 89 92 94 96 99 100 100 101 98 96 98 100 100 100 100 99 99 98 96 96 97 99 100 99 99 99 98 98 99 98 97 96 96 97 99 99 97 94 90 87 85 85 87 86 80 75 72 71 68 62 59 57 56 56 56 57 58 59 59 59 58 56 53 51 49 46 43 39 36 34 32
97 98 93 76 65 67 72 75 82 86 85 89 92 87 86 91 95 97 100 100 100 99 95 91 91 94 96 98 97 96 96 97 97 96 95 98 100 100 99 99 97 95 95 95 95 95 94 94 94 93 91 89 87 85 85 87 86 81 74 72 70 67 63 60 58 58 57 58 59 60 61 61 60 59 57 54 52 49 46 43 40 38 36 35 34
96 95 89 74 65 67 70 74 83 89 90 93 92 85 85 93 97 98 100 100 98 94 90 87 86 85 86 87 88 89 91 93 95 96 94 94 96 96 96 95 93 91 91 90 89 89 89 88 86 85 85 84 84 86 89 89 82 75 72 71 68 63 61 59 59 59 60 61 62 62 62 61 61 58 55 52 50 46 42 41 40 39 37 36 36
96 93 85 72 65 66 69 74 84 89 90 91 89 85 87 94 97 99 100 98 96 92 88 84 82 79 77 77 79 83 85 86 91 94 95 94 95 94 93 90 89 88 88 86 84 85 86 86 84 83 84 85 87 90 90 84 76 72 71 69 65 62 61 60 61 62 63 63 63 62 62 62 60 56 53 49 45 43 41 40 40 40 39 39 39
95 92 81 69 65 66 67 72 83 88 88 88 88 86 87 91 96 99 100 99 99 97 93 87 82 77 73 73 75 78 79 80 83 87 91 94 95 94 91 88 87 88 87 86 86 87 86 86 86 85 86 88 91 90 84 76 72 71 69 65 63 62 62 63 64 65 64 63 63 63 62 61 58 53 49 45 42 41 42 41 41 41 42 42 42
95 91 80 68 65 67 67 71 81 86 85 86 89 87 85 88 92 94 95 98 100 100 98 94 89 82 75 72 73 75 76 76 78 79 83 86 89 90 90 89 88 89 88 88 87 84 83 83 83 83 84 87 88 84 77 72 71 70 67 66 65 65 65 66 65 65 64 64 64 63 61 58 53 47 44 41 41 41 42 42 43 44 45 45 45
95 93 83 70 65 67 68 70 78 82 81 83 88 87 84 85 88 88 89 91 94 97 100 99 95 90 84 79 77 77 76 76 77 78 78 81 84 87 88 87 87 87 86 84 83 81 80 80 80 81 84 85 82 77 73 71 72 72 71 70 69 67 67 66 65 65 65 64 64 62 58 52 46 42 41 41 41 42 42 43 45 47 47 48 48
97 96 89 75 67 67 68 69 74 78 78 80 85 86 84 84 86 86 86 85 87 92 97 99 97 96 95 90 87 85 82 80 79 80 81 81 81 82 83 84 84 84 82 80 80 80 81 81 82 84 84 80 76 74 74 75 76 76 74 72 70 68 68 66 65 65 65 64 61 57 50 45 42 40 40 41 41 42 44 45 47 49 50 50 50
99 98 92 81 72 68 67 68 70 74 76 78 82 85 84 83 83 85 84 83 83 86 92 95 94 95 96 97 96 94 91 87 82 80 81 82 81 80 80 81 82 83 80 79 80 81 82 82 84 84 80 76 74 76 78 79 78 76 73 71 69 68 67 66 66 65 63 60 55 49 44 41 40 40 40 41 43 44 46 48 50 52 53 54 53
100 97 90 83 77 72 68 67 68 71 75 78 82 84 83 82 82 83 84 82 82 83 87 90 92 92 94 97 98 98 97 96 91 85 82 81 81 81 80 79 80 81 80 79 81 82 82 83 84 83 79 77 78 80 80 79 77 74 71 70 69 68 68 67 65 62 57 52 48 44 41 40 40 40 41 43 45 47 49 51 53 55 56 57 56
100 97 88 81 79 76 72 67 66 69 74 78 80 82 81 81 83 84 82 80 80 80 83 87 91 94 96 97 97 97 98 99 98 96 90 85 81 81 81 80 78 79 79 80 81 82 83 85 89 89 86 84 82 81 80 78 75 72 71 70 70 69 68 64 59 54 49 46 44 42 41 40 41 41 43 45 48 51 53 55 57 58 58 58 57
100 99 92 83 80 79 76 71 68 69 71 74 76 78 77 79 81 81 79 80 80 79 80 84 91 97 100 99 98 99 99 98 99 100 98 93 86 81 81 81 79 79 80 80 82 85 88 92 96 98 96 89 83 80 78 75 72 71 71 72 71 67 62 57 52 48 46 45 43 42 41 42 42 44 46 49 52 54 56 57 59 59 59 59 59
99 100 97 88 81 80 80 78 75 72 69 69 71 73 73 75 76 75 74 77 79 80 82 84 90 96 99 98 98 99 99 98 98 99 99 98 93 87 84 83 83 83 84 84 88 93 98 99 100 101 97 89 82 79 76 73 71 72 72 71 67 61 55 50 48 47 46 45 43 42 42 43 45 47 50 53 54 56 57 59 59 60 61 62 63
98 99 100 94 85 80 81 83 83 79 74 71 71 70 69 72 73 71 71 75 79 82 85 87 90 96 100 100 99 100 99 98 97 96 96 97 96 93 91 89 90 92 93 94 97 100 101 101 100 98 92 85 80 78 76 74 73 73 70 64 58 54 51 49 48 47 45 44 43 44 45 47 49 51 53 54 56 57 59 60 61 62 63 63 62
98 97 99 99 91 82 78 80 83 82 79 77 76 74 71 71 71 70 72 74 78 82 84 85 89 96 100 101 100 101 101 100 98 96 95 95 95 96 96 95 96 98 99 99 100 101 101 100 98 92 86 81 79 78 76 73 70 66 61 57 54 52 51 49 47 45 44 45 46 47 48 49 51 52 54 56 58 58 58 59 60 60 59 57 54
99 97 98 100 97 89 81 78 80 81 82 81 81 79 76 73 70 68 70 73 76 79 82 84 88 94 99 101 101 100 100 100 99 97 96 96 97 98 99 98 97 99 99 100 100 99 97 93 89 85 83 81 79 75 70 66 62 59 56 54 52 51 48 46 45 45 46 48 48 48 49 51 52 54 55 55 55 56 57 58 58 56 52 50 48
100 98 98 99 99 96 89 83 80 81 81 80 80 80 79 75 71 68 68 70 72 75 79 84 89 93 98 100 101 100 100 101 100 98 97 97 97 98 99 97 97 98 98 98 97 93 89 85 84 83 81 77 71 66 62 59 58 56 54 52 49 47 46 45 46 47 48 49 49 50 51 52 52 52 51 52 54 57 58 57 54 51 48 47 47
100 99 98 98 98 99 97 92 86 83 81 79 78 79 79 78 74 69 66 66 69 72 77 83 88 94 99 101 101 100 101 101 100 99 98 98 97 97 97 97 96 96 97 96 93 88 83 81 80 77 72 66 63 61 60 58 56 53 51 48 47 46 46 46 48 48 49 50 50 50 49 49 47 48 50 54 56 57 55 52 49 48 49 50 51
100 98 98 99 98 98 97 95 93 91 88 85 83 81 78 77 75 70 66 65 67 72 78 84 90 96 100 101 100 100 100 101 101 100 98 96 96 96 96 96 96 95 94 91 86 80 75 73 71 67 63 62 62 61 58 55 52 49 47 46 46 46 47 48 49 49 49 48 47 46 45 45 47 51 54 55 54 51 50 50 50 51 54 56 57
101 99 98 99 99 98 97 96 96 96 95 94 93 87 79 75 74 72 68 66 69 74 81 88 93 97 100 100 100 100 100 99 99 97 96 95 96 96 94 92 90 86 82 78 73 70 68 66 64 62 61 60 59 56 53 50 48 46 46 46 46 47 48 48 48 47 45 43 42 43 46 49 52 53 52 50 49 49 50 53 55 58 61 62 63
101 99 99 99 99 98 98 99 98 98 97 96 94 87 78 75 76 76 72 71 74 80 85 90 95 98 100 100 100 100 99 98 97 97 96 97 96 94 89 83 77 72 69 67 65 64 64 62 60 59 58 56 54 52 49 47 46 45 45 46 46 46 45 44 42 41 41 41 44 47 49 50 49 48 47 48 51 53 56 59 63 65 66 67 66